Home   Weather   Township of Fairfield   Past weeks
Flag for USA

Past Weather in Township of Fairfield, Illinois, USA — Yesterday and Last 2 Weeks

Now
89 °F

Sunny.


Feels Like: 90 °F
Forecast: 91 / 70 °F
Wind: No wind

Location: Davenport Municipal Airport

Current Time: Jul 5, 2020 at 1:07:36 pm

Latest Report: Jul 5, 2020 at 11:52 am


Visibility: 10 mi

Pressure: 30.00 "Hg

Humidity: 42%

Dew Point: 63 °F

Location of Township of FairfieldLocation

Past Weather in Township of Fairfield — Graph

°F

Township of Fairfield Temperature Yesterday

Maximum temperature yesterday: 90 °F (at 3:52 pm)
Minimum temperature yesterday: 66 °F (at 3:52 am)
Average temperature yesterday: 79 °F

High & Low Weather Summary for the Past Weeks

 TemperatureHumidityPressure
High90 °F (Jun 29, 5:52 pm)97% (Jun 21, 5:59 am)30.08 "Hg (Jun 21, 5:59 am)
Low59 °F (Jun 22, 11:52 pm)38% (Jun 25, 1:52 pm)29.72 "Hg (Jun 28, 1:52 pm)
Average76 °F74%29.89 "Hg
* Reported Jun 20 11:13 am — Jul 5 11:52 am, Township of Fairfield. Weather by CustomWeather, © 2020

Note: Actual official high and low records may vary slightly from our data, if they occured in-between our weather recording intervals... More about our weather records

Township of Fairfield Weather History for the Previous 24 Hours

Scroll right to see more
 ConditionsComfort  
Time TempWeatherWind HumidityBarometerVisibility
11:52 am
Sun, Jul 5
89 °FSunny.No wind42%30.00 "Hg10 mi
10:52 am86 °FSunny.N/A63%30.01 "Hg8 mi
9:52 am83 °FWarm.5 mph68%30.01 "Hg7 mi
8:52 am80 °FWarm.5 mph71%30.01 "HgN/A
7:52 am76 °FSunny.6 mph80%30.00 "Hg5 mi
6:52 am73 °FSunny.No wind84%29.99 "Hg4 mi
5:52 am69 °FFog.5 mph90%29.99 "Hg3 mi
4:52 am69 °FFog.No wind90%29.98 "Hg6 mi
3:52 am71 °FClear.5 mph87%29.98 "Hg7 mi
2:52 am71 °FClear.6 mph84%29.98 "Hg7 mi
1:52 am71 °FClear.6 mph84%29.99 "Hg7 mi
12:52 am73 °FClear.6 mph79%29.98 "Hg7 mi
11:52 pm
Sat, Jul 4
72 °FClear.5 mph84%29.98 "Hg4 mi
10:52 pm74 °FClear.6 mph76%29.98 "Hg5 mi
9:52 pm75 °FClear.5 mph76%29.97 "Hg10 mi
8:52 pm77 °FClear.6 mph77%29.95 "Hg10 mi
7:52 pm84 °FSunny.5 mph61%29.96 "Hg10 mi
6:52 pm87 °FSunny.6 mph50%29.96 "Hg10 mi
5:52 pm88 °FSunny.6 mph48%29.96 "Hg10 mi
4:52 pm89 °FSunny.9 mph46%29.98 "Hg10 mi
3:52 pm90 °FPassing clouds.8 mph45%30.00 "Hg10 mi
2:52 pm89 °FSunny.7 mph46%30.01 "Hg10 mi
1:52 pm89 °FPassing clouds.6 mph48%30.02 "Hg10 mi
Weather by CustomWeather, © 2020

See weather overview